#timestamp,LO_Frequency,Hit 
1500523215.3,286046990.3,N
1500523235.1,286046990.7,N
1500523255.8,286046990.2,N
1500523305.7,286046992.4,Y
1500523315.6,286046997.7,N
1500523335.5,286047000.1,N
1500523355.3,286046999.9,N
1500523375.1,286047000.2,N
1500523395.9,286047002.2,N
1500523415.7,286047000.3,N
1500523435.6,286047000.1,N
1500523455.4,286047001.6,N
1500523475.2,286047000.3,N
1500523495.1,286046998.4,N
1500523496.0,286046998.4,N
1500523515.8,286046998.9,N
1500523535.6,286046998.8,N
1500523555.5,286046998.6,N
1500523575.3,286046999.9,N
1500523595.2,286046998.2,N
1500523615.9,286046998.8,N
1500523635.7,286046999.4,N
1500523655.6,286047000.6,N
1500523675.4,286047001.9,N
1500523695.2,286047000.0,N
1500523715.1,286047000.6,N
1500523716.0,286047000.6,N
1500523735.8,286046998.5,N
1500523755.7,286047000.5,N
1500523775.5,286047000.7,N
1500523795.3,286047000.7,N
1500523815.2,286047002.5,N
1500523835.0,286047002.1,N
1500523835.9,286047002.1,N
1500523855.7,286046999.9,N
1500523875.6,286046998.9,N
1500523895.4,286046999.4,N
1500523915.3,286046998.6,N
1500523935.1,286046999.4,N
1500523936.0,286046999.4,N
1500523955.8,286047001.2,N
1500523975.7,286046999.0,N
1500523995.5,286046999.0,N
1500524015.3,286046998.2,N
1500524035.2,286046998.1,N
1500524055.0,286047000.9,N
1500524055.9,286047000.9,N
1500524075.8,286047002.5,N
1500524095.6,286047002.4,N
1500524115.4,286046998.6,N
1500524135.3,286046998.3,N
1500524155.1,286046998.6,N
1500524175.8,286046998.2,N
1500524195.7,286046999.4,N
1500524215.5,286046996.7,N
1500524235.4,286046997.5,N
1500524255.2,286046999.1,N
1500524275.0,286047001.2,N
1500524275.9,286047001.2,N
1500524295.8,286046998.6,N
1500524315.6,286047001.2,N
1500524335.5,286047001.2,N
1500524355.3,286046999.4,N
1500524375.1,286046999.1,N
1500524395.9,286046998.7,N
1500524415.7,286047000.5,N
1500524435.5,286047001.0,N
1500524455.4,286046999.0,N
1500524475.2,286046998.9,N
1500524495.0,286046998.8,N
1500524496.0,286046998.8,N
1500524515.8,286047000.3,N
1500524535.6,286047000.5,N
1500524555.5,286047000.6,N
1500524575.3,286046999.9,N
1500524595.1,286046999.8,N
1500524615.9,286046999.7,N
1500524635.7,286046998.7,N
1500524655.6,286046998.8,N
1500524675.4,286046998.7,N
1500524695.2,286047000.6,N
1500524715.1,286047000.4,N
1500524716.0,286047000.4,N
1500524735.8,286046998.5,N
1500524755.6,286047001.0,N
1500524775.5,286046998.2,N
1500524795.3,286046998.6,N
1500524815.2,286046999.2,N
1500524835.9,286046999.1,N
1500524855.7,286046998.2,N
1500524875.6,286047001.1,N
1500524895.4,286047001.0,N
1500524915.2,286047000.7,N
1500524935.1,286047001.1,N
1500524936.0,286047001.1,N
1500524955.8,286047000.8,N
1500524975.7,286046998.1,N
1500524995.5,286047001.0,N
1500525015.3,286046999.8,N
1500525035.2,286047000.2,N
1500525055.0,286047000.4,N
1500525055.9,286047000.4,N
1500525075.7,286047000.4,N
1500525095.6,286047000.7,N
1500525115.4,286046998.2,N
1500525135.3,286047000.2,N
1500525155.1,286047000.3,N
1500525156.0,286047000.3,N
1500525175.8,286047000.4,N
1500525195.7,286046999.8,N
1500525215.5,286047000.5,N
1500525235.3,286046998.3,N
1500525255.2,286047001.1,N
1500525275.0,286047000.8,N
1500525275.9,286047000.8,N
1500525295.8,286047001.2,N
1500525315.6,286047001.0,N
1500525335.4,286047001.1,N
1500525355.3,286046999.8,N
1500525375.1,286047000.0,N
1500525395.9,286047000.8,N
1500525415.7,286047000.5,N
1500525435.5,286046999.8,N
1500525455.4,286047000.9,N
1500525475.2,286047000.7,N
1500525495.0,286046998.2,N
1500525495.9,286046998.2,N
1500525515.8,286046998.6,N
1500525535.6,286046998.2,N
1500525555.5,286047000.7,N
1500525575.3,286047000.6,N
1500525595.1,286046998.1,N
1500525615.9,286046998.2,N
1500525635.7,286046999.0,N
1500525655.5,286047001.2,N
1500525675.4,286046998.8,N
1500525695.2,286046999.3,N
1500525715.1,286046999.3,N
1500525716.0,286046999.3,N
1500525735.8,286047000.9,N
1500525755.6,286047000.1,N
1500525775.5,286047002.3,N
1500525795.3,286047000.3,N
1500525815.1,286046998.3,N
1500525835.9,286046998.3,N
1500525855.7,286047000.9,N
1500525875.6,286046998.2,N
1500525895.4,286047002.2,N
1500525915.2,286047001.1,N
1500525935.1,286047001.2,N
1500525936.0,286047001.2,N
1500525955.8,286046999.0,N
1500525975.6,286046998.7,N
1500525995.5,286046999.0,N
1500526015.3,286046998.6,N
1500526035.2,286047001.0,N
1500526055.9,286047000.5,N
1500526075.7,286047001.2,N
1500526095.6,286046998.8,N
1500526115.4,286046999.1,N
1500526135.2,286046998.3,N
1500526155.1,286046998.4,N
1500526156.0,286046998.4,N
1500526175.8,286046998.2,N
1500526195.7,286046998.9,N
1500526215.5,286046998.9,N
1500526235.3,286046997.0,N
1500526255.2,286046996.5,N
1500526275.0,286046996.5,N
1500526275.9,286046996.5,N
1500526295.7,286046999.3,N
1500526315.6,286046996.5,N
1500526335.4,286046996.7,N
1500526355.3,286046996.6,N
1500526375.1,286046998.5,N
1500526376.0,286046998.5,N
1500526395.8,286046999.0,N
1500526415.7,286046999.3,N
1500526435.5,286046999.2,N
1500526455.3,286046999.1,N
1500526475.2,286046998.8,N
1500526495.0,286046999.6,N
1500526495.9,286046999.6,N
1500526515.8,286046999.0,N
1500526535.6,286046999.0,N
1500526555.4,286046999.0,N
1500526575.3,286046999.3,N
1500526595.1,286046999.5,N
1500526615.9,286046997.0,N
1500526635.7,286046998.9,N
1500526655.5,286046996.5,N
1500526675.4,286046996.8,N
1500526695.2,286046997.3,N
1500526715.0,286046999.2,N
1500526715.9,286046999.2,N
1500526735.8,286046999.0,N
1500526755.6,286046999.5,N
1500526775.5,286046999.5,N
1500526795.3,286046996.7,N
